• In Russia
  • List of Countries
  • For 7 days
  • Water Temperature
  • Satellite Maps
  • Weather Map
  • Weather Widgets
  • user-avatar
    Login

    Hourly Weather Newcastle

    Today, 26 June, Wednesday

    Time Temperature Precipitation Wind Pressure Humidity
    00:00 +12°C° 0.5 mm 3 mps 773 mmHg 93%
    01:00 +12°C° 0.5 mm 3 mps 773 mmHg 93%
    02:00 +12°C° 0.4 mm 3 mps 773 mmHg 93%
    03:00 +12°C° 0.4 mm 3 mps 774 mmHg 93%
    04:00 +13°C° 0 mm 2 mps 774 mmHg 92%
    05:00 +13°C° 0.2 mm 2 mps 774 mmHg 92%
    06:00 +12°C° 0.2 mm 3 mps 774 mmHg 91%
    07:00 +13°C° 0.2 mm 3 mps 774 mmHg 91%
    08:00 +14°C° 0.1 mm 3 mps 774 mmHg 87%
    09:00 +16°C° 0.1 mm 3 mps 775 mmHg 83%
    10:00 +17°C° 0.1 mm 4 mps 775 mmHg 78%
    11:00 +18°C° 0 mm 4 mps 775 mmHg 70%
    12:00 +18°C° 0 mm 4 mps 774 mmHg 62%
    13:00 +19°C° 0 mm 4 mps 774 mmHg 54%
    14:00 +18°C° 0 mm 4 mps 773 mmHg 57%
    15:00 +18°C° 0 mm 3 mps 773 mmHg 60%
    16:00 +17°C° 0 mm 3 mps 773 mmHg 63%
    17:00 +16°C° 0.1 mm 3 mps 774 mmHg 70%
    18:00 +13°C° 0.1 mm 3 mps 774 mmHg 77%
    19:00 +12°C° 0.1 mm 3 mps 774 mmHg 84%
    20:00 +12°C° 0.2 mm 3 mps 774 mmHg 86%
    21:00 +12°C° 0.2 mm 3 mps 775 mmHg 88%
    22:00 +12°C° 0.2 mm 3 mps 775 mmHg 90%
    23:00 +12°C° 0.1 mm 3 mps 775 mmHg 90%

    Tomorrow, 27 June, Thursday

    Time Temperature Precipitation Wind Pressure Humidity
    00:00 +12°C° 0.1 mm 3 mps 774 mmHg 91%
    01:00 +12°C° 0.1 mm 2 mps 774 mmHg 92%
    02:00 +12°C° 0.1 mm 2 mps 774 mmHg 92%
    03:00 +12°C° 0.1 mm 2 mps 774 mmHg 92%
    04:00 +12°C° 0.1 mm 2 mps 774 mmHg 92%
    05:00 +12°C° 0.1 mm 2 mps 774 mmHg 93%
    06:00 +12°C° 0.1 mm 1 mps 774 mmHg 94%
    07:00 +11°C° 0.1 mm 1 mps 775 mmHg 94%
    08:00 +13°C° 0 mm 1 mps 775 mmHg 88%
    09:00 +15°C° 0 mm 1 mps 775 mmHg 83%
    10:00 +18°C° 0 mm 1 mps 775 mmHg 77%
    11:00 +18°C° 0 mm 1 mps 774 mmHg 76%
    12:00 +18°C° 0 mm 1 mps 774 mmHg 75%
    13:00 +18°C° 0 mm 1 mps 773 mmHg 74%
    14:00 +18°C° 0 mm 1 mps 773 mmHg 74%
    15:00 +18°C° 0 mm 1 mps 773 mmHg 74%
    16:00 +17°C° 0 mm 2 mps 772 mmHg 73%
    17:00 +16°C° 0 mm 2 mps 773 mmHg 78%
    18:00 +15°C° 0 mm 2 mps 773 mmHg 82%
    19:00 +13°C° 0 mm 2 mps 773 mmHg 86%
    20:00 +13°C° 0 mm 2 mps 774 mmHg 88%
    21:00 +13°C° 0 mm 2 mps 774 mmHg 89%
    22:00 +12°C° 0 mm 2 mps 774 mmHg 90%
    23:00 +12°C° 0 mm 2 mps 774 mmHg 91%

    Day after tomorrow, 28 June, Friday

    Time Temperature Precipitation Wind Pressure Humidity
    00:00 +12°C° 0 mm 2 mps 774 mmHg 92%
    01:00 +12°C° 0 mm 2 mps 774 mmHg 93%
    02:00 +11°C° 0.1 mm 1 mps 774 mmHg 93%
    03:00 +11°C° 0.1 mm 1 mps 773 mmHg 94%
    04:00 +11°C° 0.1 mm 1 mps 773 mmHg 94%
    05:00 +11°C° 0 mm 1 mps 773 mmHg 94%
    06:00 +11°C° 0 mm 1 mps 773 mmHg 94%
    07:00 +11°C° 0 mm 1 mps 774 mmHg 94%
    08:00 +13°C° 0 mm 1 mps 774 mmHg 87%
    09:00 +15°C° 0 mm 1 mps 773 mmHg 79%
    10:00 +18°C° 0 mm 1 mps 773 mmHg 71%
    11:00 +19°C° 0 mm 1 mps 773 mmHg 67%
    12:00 +20°C° 0 mm 1 mps 772 mmHg 62%
    13:00 +20°C° 0 mm 2 mps 771 mmHg 57%
    14:00 +19°C° 0 mm 2 mps 771 mmHg 60%
    15:00 +18°C° 0 mm 3 mps 771 mmHg 64%
    16:00 +18°C° 0 mm 4 mps 770 mmHg 67%
    17:00 +15°C° 0 mm 4 mps 771 mmHg 72%
    18:00 +14°C° 0 mm 4 mps 771 mmHg 77%
    19:00 +12°C° 0 mm 4 mps 771 mmHg 82%
    20:00 +12°C° 0 mm 4 mps 771 mmHg 85%
    21:00 +11°C° 0 mm 3 mps 771 mmHg 87%
    22:00 +11°C° 0 mm 3 mps 771 mmHg 89%
    23:00 +11°C° 0 mm 3 mps 771 mmHg 90%

    29 June, Saturday

    Time Temperature Precipitation Wind Pressure Humidity
    00:00 +10°C° 0 mm 3 mps 771 mmHg 91%
    01:00 +10°C° 0 mm 3 mps 770 mmHg 92%
    02:00 +10°C° 0 mm 3 mps 770 mmHg 93%
    03:00 +9°C° 0 mm 3 mps 769 mmHg 94%
    04:00 +9°C° 0 mm 3 mps 769 mmHg 94%
    05:00 +9°C° 0 mm 2 mps 769 mmHg 94%
    06:00 +9°C° 0 mm 2 mps 769 mmHg 94%
    07:00 +9°C° 0 mm 2 mps 769 mmHg 94%
    08:00 +10°C° 0 mm 2 mps 769 mmHg 86%
    09:00 +13°C° 0 mm 2 mps 769 mmHg 77%
    10:00 +15°C° 0 mm 2 mps 768 mmHg 69%
    11:00 +17°C° 0 mm 2 mps 768 mmHg 63%
    12:00 +18°C° 0 mm 2 mps 767 mmHg 57%
    13:00 +20°C° 0 mm 2 mps 766 mmHg 51%
    14:00 +20°C° 0 mm 2 mps 766 mmHg 54%
    15:00 +19°C° 0 mm 2 mps 765 mmHg 57%
    16:00 +19°C° 0 mm 2 mps 764 mmHg 60%
    17:00 +17°C° 0 mm 2 mps 764 mmHg 67%
    18:00 +14°C° 0 mm 3 mps 764 mmHg 74%
    19:00 +13°C° 0 mm 3 mps 765 mmHg 82%
    20:00 +13°C° 0 mm 3 mps 764 mmHg 83%
    21:00 +12°C° 0 mm 3 mps 764 mmHg 84%
    22:00 +12°C° 0 mm 3 mps 764 mmHg 86%
    23:00 +12°C° 0 mm 4 mps 763 mmHg 85%

    30 June, Sunday

    Time Temperature Precipitation Wind Pressure Humidity
    00:00 +12°C° 0 mm 4 mps 763 mmHg 83%
    01:00 +12°C° 0 mm 4 mps 763 mmHg 82%
    02:00 +12°C° 0 mm 4 mps 763 mmHg 81%
    03:00 +12°C° 0 mm 4 mps 763 mmHg 80%
    04:00 +12°C° 0 mm 4 mps 763 mmHg 79%
    05:00 +13°C° 0 mm 4 mps 763 mmHg 78%
    06:00 +13°C° 0 mm 3 mps 764 mmHg 77%
    07:00 +13°C° 0 mm 3 mps 765 mmHg 76%
    08:00 +14°C° 0 mm 3 mps 765 mmHg 67%
    09:00 +16°C° 0 mm 3 mps 766 mmHg 58%
    10:00 +15°C° 0 mm 4 mps 766 mmHg 49%
    11:00 +17°C° 0 mm 3 mps 766 mmHg 46%
    12:00 +17°C° 0 mm 3 mps 765 mmHg 42%
    13:00 +18°C° 0 mm 3 mps 765 mmHg 38%
    14:00 +17°C° 0 mm 3 mps 765 mmHg 42%
    15:00 +17°C° 0 mm 3 mps 765 mmHg 46%
    16:00 +16°C° 0 mm 3 mps 765 mmHg 50%
    17:00 +15°C° 0 mm 2 mps 765 mmHg 56%
    18:00 +13°C° 0 mm 2 mps 766 mmHg 61%
    19:00 +10°C° 0 mm 2 mps 767 mmHg 67%
    20:00 +10°C° 0 mm 2 mps 767 mmHg 67%
    21:00 +9°C° 0 mm 2 mps 767 mmHg 67%
    22:00 +9°C° 0 mm 2 mps 768 mmHg 67%
    23:00 +8°C° 0 mm 2 mps 768 mmHg 68%

    1 July, Monday

    Time Temperature Precipitation Wind Pressure Humidity
    00:00 +8°C° 0 mm 2 mps 768 mmHg 70%
    01:00 +7°C° 0 mm 2 mps 768 mmHg 71%
    02:00 +7°C° 0 mm 2 mps 768 mmHg 73%
    03:00 +7°C° 0 mm 2 mps 768 mmHg 74%
    04:00 +6°C° 0 mm 2 mps 767 mmHg 75%
    05:00 +6°C° 0 mm 2 mps 768 mmHg 76%
    06:00 +6°C° 0 mm 2 mps 768 mmHg 77%
    07:00 +6°C° 0 mm 2 mps 768 mmHg 78%
    08:00 +9°C° 0 mm 1 mps 768 mmHg 70%
    09:00 +12°C° 0 mm 1 mps 768 mmHg 63%
    10:00 +14°C° 0 mm 1 mps 768 mmHg 56%
    11:00 +15°C° 0 mm 1 mps 767 mmHg 54%
    12:00 +16°C° 0 mm 1 mps 766 mmHg 53%
    13:00 +18°C° 0 mm 1 mps 765 mmHg 51%
    14:00 +17°C° 0 mm 2 mps 765 mmHg 56%
    15:00 +16°C° 0 mm 2 mps 765 mmHg 61%
    16:00 +14°C° 0 mm 3 mps 764 mmHg 66%
    17:00 +13°C° 0 mm 3 mps 765 mmHg 72%
    18:00 +12°C° 0 mm 3 mps 765 mmHg 78%
    19:00 +11°C° 0 mm 3 mps 765 mmHg 85%
    20:00 +10°C° 0 mm 3 mps 765 mmHg 86%
    21:00 +10°C° 0 mm 3 mps 765 mmHg 88%
    22:00 +10°C° 0 mm 3 mps 764 mmHg 90%
    23:00 +9°C° 0 mm 3 mps 764 mmHg 91%
    Show more